Weather History for SARI - October, 2012

Change the Weather History Date:

Monday, October 29, 2012

  Actual Average Record
Temperature  
Mean Temperature 80 °F -  
Max Temperature 93 °F 83 °F - ()
Min Temperature 66 °F 62 °F - ()
Cooling Degree Days 14    
Growing Degree Days 30 (Base 50)    
Moisture  
Dew Point 73 °F    
Average Humidity 78    
Maximum Humidity 100    
Minimum Humidity 51    
Precipitation  
Precipitation 0.00 in - - ()
Sea Level Pressure  
Sea Level Pressure 29.85 in    
Wind  
Wind Speed 5 mph ()    
Max Wind Speed 13 mph    
Max Gust Speed -    
Visibility 12.0 miles    
Events      
T = Trace of Precipitation, MM = Missing Value Source: Averaged Metar Reports

Daily Weather History Graph

Daily Weather History Graph

Search for Another Location

Airport or City:

Trip Planner

Search our weather history database for the weather conditions in past years. The results will help you decide how hot, cold, wet, or windy it might be!

Date:

Astronomy

Oct. 29, 2012 Rise Set
Actual Time 5:50 AM ART 6:52 PM ART
Civil Twilight 5:26 AM ART 7:16 PM ART
Nautical Twilight 4:58 AM ART 7:45 PM ART
Astronomical Twilight 4:29 AM ART 8:14 PM ART
Moon 6:54 PM ART (10/29) 5:30 AM ART (10/29)
Length of Visible Light 13h 49m
Length of Day
13h 01m
Full, 100% of the Moon is Illuminated
Oct 29
Full
Oct 29
Full
Nov 6
Last Quarter
Nov 13
New
Nov 20
First Quarter

Hourly Weather History & Observations

Time (ART) Temp. Heat Index Dew Point Humidity Pressure Visibility Wind Dir Wind Speed Gust Speed Precip Events Conditions
12:00 AM 71.6 °F - 68.0 °F 88% 29.92 in - ENE 3.5 mph - N/A   Clear
1:00 AM 69.8 °F - 68.0 °F 94% 29.89 in - NE 2.3 mph - N/A   Clear
2:00 AM 69.8 °F - 68.0 °F 94% 29.89 in - NE 4.6 mph - N/A   Clear
4:00 AM 68.0 °F - 68.0 °F 100% 29.86 in - NE 4.6 mph - N/A   Clear
5:00 AM 66.2 °F - 66.2 °F 100% 29.86 in - NE 5.8 mph - N/A   Clear
6:00 AM 66.2 °F - 66.2 °F 100% 29.89 in - NNE 6.9 mph - N/A   Clear
7:00 AM 68.0 °F - 68.0 °F 100% 29.89 in - NE 8.1 mph - N/A   Clear
8:00 AM 73.4 °F - 69.8 °F 88% 29.92 in - NE 6.9 mph - N/A   Clear
9:00 AM 77.0 °F - 69.8 °F 78% 29.92 in - NNE 6.9 mph - N/A   Clear
10:00 AM 82.4 °F 88.2 °F 73.4 °F 74% 29.92 in - NNE 5.8 mph - N/A   Clear
11:00 AM 87.8 °F 97.6 °F 75.2 °F 66% 29.89 in - NNE 10.4 mph - N/A   Clear
12:00 PM 89.6 °F 99.8 °F 75.2 °F 62% 29.89 in - NNE 9.2 mph - N/A   Clear
1:00 PM 89.6 °F 99.8 °F 75.2 °F 62% 29.86 in - NNW 11.5 mph - N/A   Clear
2:00 PM 89.6 °F 98.2 °F 73.4 °F 59% 29.86 in - NE 11.5 mph - N/A   Clear
3:00 PM 90 °F - 74 °F 51% 29.75 in 12 mi NNE 12.7 mph - -   Clear
3:00 PM 89.6 °F 98.2 °F 73.4 °F 59% 29.83 in - NNE 12.7 mph - N/A   Clear
4:00 PM 93.2 °F 105.0 °F 75.2 °F 56% 29.80 in - North 9.2 mph - N/A   Clear
5:00 PM 93.2 °F 105.0 °F 75.2 °F 56% 29.77 in - NNE 6.9 mph - N/A   Clear
6:00 PM 91.4 °F 107.2 °F 78.8 °F 66% 29.80 in - Calm Calm - N/A   Clear
7:00 PM 87.8 °F 102.5 °F 78.8 °F 75% 29.80 in - Calm Calm - N/A   Clear
8:00 PM 86.0 °F 95.1 °F 75.2 °F 70% 29.80 in - Calm Calm - N/A   Clear
9:00 PM 83 °F - 77 °F 77% 29.75 in 12 mi Calm Calm - -   Clear
9:00 PM 82.4 °F 90.9 °F 77.0 °F 84% 29.83 in - Calm Calm - N/A   Clear
10:00 PM 80.6 °F 87.1 °F 77.0 °F 89% 29.83 in - Calm Calm - N/A   Clear
11:00 PM 78.8 °F - 77.0 °F 94% 29.83 in - Calm Calm - N/A   Clear